Location: Leyland
(53.0333°N, 117.3167°W)
Time: 12:48:06
(UTC+00:00)

Envisat - Visible Passes

Search period start: 30 April 2025 00:00
Search period end: 10 May 2025 00:00
Orbit: 761 x 763 km, 98.3° (Epoch: 28 April)

Date Brightness Start Highest point End Pass type
(mag) Time Alt. Az. Time Alt. Az. Time Alt. Az.
30 Apr 3.8 10:29:36 10° NNE 10:34:33 50° E 10:39:27 10° S visible
01 May 4.8 09:52:21 10° NE 09:56:35 26° E 10:00:46 10° SSE visible
01 May 3.2 11:30:53 10° N 11:35:52 57° WNW 11:40:49 10° SW visible
02 May 5.5 09:16:01 10° NE 09:18:23 13° E 09:20:46 10° ESE visible
02 May 3.2 10:53:07 10° NNE 10:58:14 76° ESE 11:03:18 10° S visible
03 May 4.2 10:15:38 10° NNE 10:20:23 39° E 10:25:07 10° SSE visible
04 May 5.1 09:38:36 10° NE 09:42:21 20° E 09:46:04 10° SE visible
04 May 3.0 11:16:45 10° NNE 11:21:50 73° WNW 11:26:53 10° SSW visible
05 May 3.5 10:39:05 10° NNE 10:44:07 59° ESE 10:49:07 10° S visible
06 May 4.6 10:01:44 10° NNE 10:06:12 30° E 10:10:39 10° SSE visible
07 May 5.4 09:25:01 10° NE 09:28:05 16° E 09:31:08 10° ESE visible
07 May 3.1 11:02:39 10° NNE 11:07:46 89° ESE 11:12:50 10° SSW visible
08 May 3.9 10:25:05 10° NNE 10:29:59 46° E 10:34:51 10° S visible
09 May 4.9 09:47:53 10° NE 09:51:59 24° E 09:56:04 10° SE visible
